This demonstration page uses our WeatherBlox Daily Observations layout. Learn more.

Left ArrowRight Arrow

39.01783, -85.05884

Hourly Observations for July 29, 2020

Temp ( °F °C ) Dew Point ( °F °C ) Humidity (%) Winds ( mph kmh ) Pressure ( in mb ) Visibility ( mi km ) Precip ( " mm )
12:52 am 00:52 Clear 70 21.1 60 15.6 71 71 Calm 29.96 1015 10 16 0.00 0.00
1:52 am 01:52 Clear 70 21.1 60 15.6 71 71 Calm 29.96 1015 10 16 0.00 0.00
2:52 am 02:52 Mostly Clear 70 21.1 60 15.6 71 71 Calm 29.96 1015 10 16 0.00 0.00
3:52 am 03:52 Partly Cloudy 68 20 62 16.7 81 81 Calm 29.96 1015 10 16 0.00 0.00
4:52 am 04:52 Mostly Clear 70 21.1 61 16.1 73 73 Calm 29.95 1014 10 16 0.00 0.00
5:52 am 05:52 Mostly Cloudy 69 20.6 62 16.7 78 78 Calm 29.96 1015 10 16 0.00 0.00
6:52 am 06:52 Partly Cloudy 69 20.6 62 16.7 78 78 Calm 29.97 1015 10 16 0.00 0.00
7:52 am 07:52 Mostly Sunny 72 22.2 65 18.3 79 79 Calm 29.98 1015 10 16 0.00 0.00
8:52 am 08:52 Mostly Sunny 77 25 64 17.8 64 64 Calm 29.98 1015 10 16 0.00 0.00
9:52 am 09:52 Sunny 81 27.2 62 16.7 53 53 S 3 6 29.98 1015 10 16 0.00 0.00
10:52 am 10:52 Mostly Sunny 83 28.3 63 17.2 51 51 VRB 3 6 29.98 1015 10 16 0.00 0.00
11:52 am 11:52 Mostly Sunny 84 28.9 64 17.8 51 51 W 5 7 29.98 1015 10 16 0.00 0.00
12:52 pm 12:52 Partly Cloudy 86 30 66 18.9 51 51 WNW 5 7 29.97 1015 10 16 0.00 0.00
1:52 pm 13:52 Mostly Cloudy 86 30 65 18.3 49 49 VRB 5 7 29.96 1015 10 16 0.00 0.00
2:52 pm 14:52 Mostly Cloudy 88 31.1 62 16.7 42 42 VRB 5 7 29.93 1014 10 16 0.00 0.00
3:52 pm 15:52 Partly Cloudy 88 31.1 65 18.3 46 46 VRB 3 6 29.91 1013 10 16 0.00 0.00
4:52 pm 16:52 Mostly Sunny 89 31.7 63 17.2 42 42 SW 8 13 29.90 1012 10 16 0.00 0.00
5:52 pm 17:52 Mostly Sunny 88 31.1 64 17.8 45 45 NW 5 7 29.89 1012 10 16 0.00 0.00
6:52 pm 18:52 Mostly Sunny 88 31.1 64 17.8 45 45 WNW 8 13 29.89 1012 10 16 0.00 0.00
7:52 pm 19:52 Partly Cloudy 87 30.6 64 17.8 46 46 WSW 3 6 29.89 1012 10 16 0.00 0.00
8:52 pm 20:52 Partly Cloudy 83 28.3 64 17.8 53 53 Calm 29.90 1013 10 16 0.00 0.00
9:52 pm 21:52 Mostly Cloudy 79 26.1 66 18.9 65 65 W 5 7 29.92 1013 10 16 0.00 0.00
10:52 pm 22:52 Partly Cloudy 79 26.1 67 19.4 67 67 Calm 29.92 1013 10 16 0.00 0.00
11:52 pm 23:52 Cloudy 76 24.4 67 19.4 74 74 Calm 29.92 1013 10 16 0.00 0.00

Powered by AerisWeather